CW1490 Weather Reports


time (UTC)temp
F
wind
direction
speed
knots
gust
knots
rain 1hr
in
rain 24hr
in
rain mn
in
humidity
%
barometer
mb
20260506051003 63 201 7.0 13.0 0.00 0.00 0.00 67 1008.9
20260506050504 63 223 7.0 13.0 0.00 0.00 0.00 67 1008.9
20260506045004 63 196 5.2 12.2 0.00 0.00 0.00 66 1008.9
20260506044518 64 195 5.2 12.2 0.00 0.00 0.00 66 1008.9
20260506044008 64 168 7.8 16.5 0.00 0.00 0.00 65 1009.0
20260506043508 64 208 6.1 16.5 0.00 0.00 0.00 65 1008.9
20260506043026 64 170 8.7 18.2 0.00 0.00 0.00 65 1009.0
20260506042508 64 207 11.3 18.2 0.00 0.00 0.00 65 1008.9
20260506042012 65 236 7.0 16.5 0.00 0.00 0.00 65 1008.9
20260506041523 65 211 7.8 16.5 0.00 0.00 0.00 65 1008.9
20260506041010 65 187 7.0 15.6 0.00 0.00 0.00 65 1008.8
20260506040509 65 196 8.7 13.9 0.00 0.00 0.00 65 1008.9
20260506040008 65 196 7.8 15.6 0.00 0.00 0.00 65 1008.9
20260506035503 65 221 8.7 15.6 0.00 0.00 0.00 65 1008.9
20260506035004 65 202 6.1 14.8 0.00 0.00 0.00 66 1008.9
20260506034512 65 196 7.0 19.1 0.00 0.00 0.00 65 1008.8
20260506034007 66 220 8.7 19.1 0.00 0.00 0.00 65 1009.0
20260506033508 66 196 9.6 17.4 0.00 0.00 0.00 65 1008.9
20260506033028 66 184 7.8 12.2 0.00 0.00 0.00 66 1008.8
20260506032509 66 194 6.1 10.4 0.00 0.00 0.00 66 1008.7
20260506032009 66 182 5.2 9.6 0.00 0.00 0.00 66 1008.8
20260506031529 66 217 5.2 10.4 0.00 0.00 0.00 66 1008.8
20260506031009 66 234 5.2 12.2 0.00 0.00 0.00 66 1008.9
20260506030507 67 203 7.0 12.2 0.00 0.00 0.00 65 1008.8
20260506030025 66 212 7.0 13.0 0.00 0.00 0.00 66 1008.8
20260506025511 66 225 7.8 14.8 0.00 0.00 0.00 67 1008.8
20260506025011 67 225 5.2 14.8 0.00 0.00 0.00 67 1008.6
20260506024537 67 194 6.1 13.0 0.00 0.00 0.00 67 1008.7
20260506024004 67 186 5.2 9.6 0.00 0.00 0.00 68 1008.7
20260506023504 67 175 4.3 11.3 0.00 0.00 0.00 68 1008.6
20260506023015 67 221 6.1 12.2 0.00 0.00 0.00 68 1008.6
20260506022506 66 209 5.2 12.2 0.00 0.00 0.00 69 1008.5
20260506022013 66 148 5.2 10.4 0.00 0.00 0.00 70 1008.6
20260506021522 66 212 5.2 13.9 0.00 0.00 0.00 71 1008.8
20260506021007 66 210 6.1 13.9 0.00 0.00 0.00 72 1008.8
20260506020508 65 224 6.1 9.6 0.00 0.00 0.00 73 1009.0
20260506020025 66 219 2.6 6.1 0.00 0.00 0.00 72 1008.9
20260506015511 66 265 2.6 6.1 0.00 0.00 0.00 72 1008.9
20260506015011 66 280 0.9 2.6 0.00 0.00 0.00 72 1008.6
20260506014527 66 282 0.9 2.6 0.00 0.00 0.00 71 1008.5
20260506014011 66 265 0.0 2.6 0.00 0.00 0.00 69 1008.3
20260506013508 67 178 0.0 6.1 0.00 0.00 0.00 67 1008.2
20260506013031 67 265 1.7 7.8 0.00 0.00 0.00 66 1008.2
20260506012505 67 236 2.6 7.8 0.00 0.00 0.00 68 1008.3
20260506012007 67 219 4.3 7.0 0.00 0.00 0.00 68 1008.1
20260506011541 67 210 3.5 6.1 0.00 0.00 0.00 69 1007.9
20260506011007 67 194 3.5 6.1 0.00 0.00 0.00 68 1007.8
20260506010511 67 219 4.3 6.1 0.00 0.00 0.00 67 1007.9
20260506010023 67 219 2.6 4.3 0.00 0.00 0.00 69 1007.8
20260506005509 67 265 0.9 4.3 0.00 0.00 0.00 67 1007.8
20260506005008 68 243 1.7 4.3 0.00 0.00 0.00 67 1007.8
20260506004526 68 265 2.6 4.3 0.00 0.00 0.00 64 1007.8
20260506004010 68 178 2.6 4.3 0.00 0.00 0.00 66 1007.8
20260506003512 68 221 0.0 2.6 0.00 0.00 0.00 65 1007.6
20260506003013 68 67 0.9 2.6 0.00 0.00 0.00 64 1007.7
20260506002504 69 247 0.0 5.2 0.00 0.00 0.00 64 1007.9
20260506002002 69 9 2.6 5.2 0.00 0.00 0.00 62 1007.9
20260506001504 69 216 2.6 5.2 0.00 0.00 0.00 63 1007.9
20260506001006 70 221 0.9 6.1 0.00 0.00 0.00 60 1007.7
20260506000506 70 163 2.6 6.1 0.00 0.00 0.00 58 1007.6
20260506000002 70 238 1.7 7.0 0.00 0.00 0.00 61 1007.5
20260505235502 70 30 1.7 7.0 0.00 0.00 0.00 60 1007.5
20260505235003 70 141 2.6 5.2 0.00 0.00 0.00 60 1007.6
20260505234538 70 170 1.7 4.3 0.00 0.00 0.00 61 1007.5
20260505234005 70 178 1.7 3.5 0.00 0.00 0.00 62 1007.4
20260505233502 70 93 1.7 8.7 0.00 0.00 0.00 61 1007.2
20260505233028 70 9 1.7 8.7 0.00 0.00 0.00 60 1007.0
20260505232505 70 43 2.6 7.0 0.00 0.00 0.00 60 1006.9
20260505232004 70 9 2.6 7.8 0.00 0.00 0.00 59 1006.7
20260505231514 71 32 2.6 11.3 0.00 0.00 0.00 59 1006.8
20260505231006 71 71 4.3 20.9 0.00 0.00 0.00 56 1006.9
20260505230501 72 53 7.0 20.9 0.00 0.00 0.00 55 1006.9
20260505230008 74 50 6.1 16.5 0.00 0.00 0.00 52 1006.4
20260505225505 75 321 5.2 16.5 0.00 0.00 0.00 47 1006.4
20260505225009 76 334 7.8 22.6 0.00 0.00 0.00 45 1006.4
20260505224538 77 209 12.2 26.1 0.00 0.00 0.00 45 1005.4
20260505224003 77 211 12.2 26.1 0.00 0.00 0.00 45 1005.2
20260505223513 77 221 12.2 21.7 0.00 0.00 0.00 45 1004.9
20260505223005 78 237 10.4 21.7 0.00 0.00 0.00 43 1004.7
20260505222505 79 238 12.2 22.6 0.00 0.00 0.00 41 1004.6
20260505222005 80 211 13.0 22.6 0.00 0.00 0.00 38 1004.5
20260505221510 81 210 13.9 26.9 0.00 0.00 0.00 32 1004.4
20260505221006 81 234 13.9 30.4 0.00 0.00 0.00 31 1004.5
20260505220507 81 232 14.8 30.4 0.00 0.00 0.00 30 1004.2
20260505220015 81 177 17.4 37.4 0.00 0.00 0.00 29 1003.9
20260505215505 81 200 11.3 37.4 0.00 0.00 0.00 30 1004.2
20260505215007 81 212 12.2 30.4 0.00 0.00 0.00 30 1004.2
20260505214504 81 185 15.6 30.4 0.00 0.00 0.00 30 1004.2
20260505214003 82 198 11.3 26.9 0.00 0.00 0.00 30 1004.1
20260505213506 82 208 15.6 28.7 0.00 0.00 0.00 29 1004.2
20260505213006 83 213 15.6 28.7 0.00 0.00 0.00 30 1004.2
20260505212509 83 219 14.8 26.1 0.00 0.00 0.00 30 1004.0
20260505212006 82 247 15.6 26.1 0.00 0.00 0.00 30 1004.0
20260505211518 82 259 13.9 28.7 0.00 0.00 0.00 30 1003.8
20260505211003 82 219 16.5 28.7 0.00 0.00 0.00 30 1003.7
20260505210505 82 207 12.2 27.8 0.00 0.00 0.00 30 1003.7
20260505210014 82 223 11.3 28.7 0.00 0.00 0.00 31 1003.7
20260505205509 82 194 15.6 41.7 0.00 0.00 0.00 31 1003.7
20260505205006 82 219 17.4 41.7 0.00 0.00 0.00 30 1003.6
20260505204519 82 208 15.6 37.4 0.00 0.00 0.00 31 1003.7
20260505204010 82 203 17.4 36.5 0.00 0.00 0.00 31 1003.6
20260505203506 83 223 16.5 36.5 0.00 0.00 0.00 31 1003.6
20260505203008 82 173 10.4 31.3 0.00 0.00 0.00 31 1003.7
20260505202503 83 241 17.4 31.3 0.00 0.00 0.00 32 1003.7
20260505202003 83 219 17.4 39.1 0.00 0.00 0.00 31 1003.7
20260505201506 83 223 20.9 40.8 0.00 0.00 0.00 31 1003.8
20260505201011 84 189 18.2 40.8 0.00 0.00 0.00 31 1003.8
20260505200503 84 215 17.4 33.0 0.00 0.00 0.00 31 1003.9
20260505200009 83 219 15.6 33.0 0.00 0.00 0.00 32 1004.0
20260505195505 83 221 16.5 33.0 0.00 0.00 0.00 32 1003.9
20260505195003 83 215 12.2 33.0 0.00 0.00 0.00 32 1004.0
20260505194517 83 223 14.8 35.6 0.00 0.00 0.00 31 1004.0
20260505194007 83 223 20.9 35.6 0.00 0.00 0.00 31 1004.2
20260505193510 83 225 15.6 32.2 0.00 0.00 0.00 31 1004.2
20260505193025 83 182 10.4 33.0 0.00 0.00 0.00 31 1004.2
20260505192507 83 156 11.3 33.0 0.00 0.00 0.00 31 1004.2
20260505192010 83 221 14.8 32.2 0.00 0.00 0.00 31 1004.3
20260505191507 83 232 17.4 32.2 0.00 0.00 0.00 30 1004.2
20260505191007 83 213 9.6 28.7 0.00 0.00 0.00 31 1004.1
20260505190503 83 219 19.1 32.2 0.00 0.00 0.00 31 1004.2
20260505190007 83 167 17.4 33.9 0.00 0.00 0.00 33 1004.3
20260505185514 82 231 22.6 33.9 0.00 0.00 0.00 34 1004.4
20260505185004 82 191 16.5 24.3 0.00 0.00 0.00 37 1004.5
20260505184519 82 205 13.9 25.2 0.00 0.00 0.00 37 1004.4
20260505184008 83 209 14.8 27.8 0.00 0.00 0.00 37 1004.4
20260505183508 83 157 13.9 32.2 0.00 0.00 0.00 37 1004.5
20260505183020 83 227 13.9 32.2 0.00 0.00 0.00 38 1004.6
20260505182507 82 210 13.9 30.4 0.00 0.00 0.00 35 1004.6
20260505182012 81 216 18.2 30.4 0.00 0.00 0.00 37 1005.1
20260505181523 82 219 13.9 24.3 0.00 0.00 0.00 40 1004.9
20260505181012 82 207 13.9 26.1 0.00 0.00 0.00 38 1005.1
20260505180507 81 221 15.6 26.1 0.00 0.00 0.00 38 1005.2
20260505180034 81 141 13.0 26.1 0.00 0.00 0.00 38 1005.2
20260505175503 82 207 16.5 26.9 0.00 0.00 0.00 38 1005.2
20260505175007 82 207 13.9 31.3 0.00 0.00 0.00 38 1005.2
20260505174512 82 246 16.5 33.0 0.00 0.00 0.00 38 1005.2
20260505174011 82 214 15.6 33.0 0.00 0.00 0.00 38 1005.4
20260505173510 82 137 9.6 20.9 0.00 0.00 0.00 39 1005.3
20260505173031 82 198 13.9 23.5 0.00 0.00 0.00 38 1005.4
20260505172509 81 247 13.0 28.7 0.00 0.00 0.00 38 1005.5
20260505172008 82 224 18.2 28.7 0.00 0.00 0.00 38 1005.5
20260505171521 82 221 13.9 26.9 0.00 0.00 0.00 38 1005.6
20260505171007 82 153 16.5 26.9 0.00 0.00 0.00 37 1005.7
20260505170510 82 171 13.9 26.9 0.00 0.00 0.00 38 1005.5
20260505170024 82 196 12.2 22.6 0.00 0.00 0.00 38 1005.5
20260505165507 81 223 13.9 22.6 0.00 0.00 0.00 39 1005.6
20260505165011 80 173 9.6 22.6 0.00 0.00 0.00 41 1005.7
20260505164526 80 158 8.7 22.6 0.00 0.00 0.00 41 1005.9
20260505164009 81 207 7.8 22.6 0.00 0.00 0.00 42 1005.9
20260505163504 80 229 13.9 22.6 0.00 0.00 0.00 41 1006.0
20260505163028 80 221 9.6 22.6 0.00 0.00 0.00 42 1006.1
20260505162504 80 200 12.2 23.5 0.00 0.00 0.00 43 1006.2
20260505162007 80 209 13.0 23.5 0.00 0.00 0.00 43 1006.3
20260505161520 79 146 7.0 16.5 0.00 0.00 0.00 43 1006.1
20260505161007 79 142 9.6 21.7 0.00 0.00 0.00 43 1006.4
20260505160507 80 219 11.3 21.7 0.00 0.00 0.00 42 1006.6
20260505153027 76 153 10.4 20.9 0.00 0.00 0.00 44 1007.4
20260505152509 76 218 7.8 21.7 0.00 0.00 0.00 45 1007.6
20260505152008 75 231 12.2 21.7 0.00 0.00 0.00 46 1007.7
20260505151527 75 205 7.8 21.7 0.00 0.00 0.00 47 1007.8
20260505151009 75 223 13.9 21.7 0.00 0.00 0.00 47 1007.8
20260505150503 74 221 10.4 19.1 0.00 0.00 0.00 47 1008.0
20260505140507 66 225 7.8 12.2 0.00 0.00 0.00 60 1008.8
20260505125008 59 232 5.2 13.9 0.00 0.00 0.00 67 1009.0
20260505124532 59 202 5.2 13.9 0.00 0.00 0.00 70 1009.1
20260505124009 59 236 7.0 13.9 0.00 0.00 0.00 70 1009.0
20260505123504 58 219 7.0 13.9 0.00 0.00 0.00 71 1009.0
20260505123005 58 242 6.1 14.8 0.00 0.00 0.00 71 1009.0
20260505122504 57 221 8.7 14.8 0.00 0.00 0.00 72 1009.1
20260505122003 57 183 6.1 16.5 0.00 0.00 0.00 74 1009.0
20260505121524 57 223 8.7 16.5 0.00 0.00 0.00 73 1009.1
20260505121003 56 237 5.2 10.4 0.00 0.00 0.00 74 1009.2
20260505120503 55 188 5.2 9.6 0.00 0.00 0.00 74 1009.3
20260505120016 55 186 4.3 9.6 0.00 0.00 0.00 74 1009.2
20260505115506 55 200 5.2 10.4 0.00 0.00 0.00 74 1009.3
20260505115007 55 191 5.2 10.4 0.00 0.00 0.00 74 1009.4
20260505114517 55 234 6.1 10.4 0.00 0.00 0.00 75 1009.4
20260505114009 55 217 7.0 11.3 0.00 0.00 0.00 75 1009.3
20260505113509 55 203 3.5 11.3 0.00 0.00 0.00 75 1009.4
20260505113021 55 178 5.2 10.4 0.00 0.00 0.00 75 1009.4
20260505112511 55 207 4.3 13.9 0.00 0.00 0.00 76 1009.5
20260505112008 54 216 7.0 13.9 0.00 0.00 0.00 75 1009.5
20260505111510 54 218 6.1 10.4 0.00 0.00 0.00 76 1009.5
20260505111004 53 200 7.0 10.4 0.00 0.00 0.00 77 1009.4
20260505110504 53 196 4.3 8.7 0.00 0.00 0.00 77 1009.3
20260505102007 49 229 4.3 7.0 0.00 0.00 0.00 82 1008.8
20260505101523 49 232 3.5 6.1 0.00 0.00 0.00 82 1008.7
20260505101007 49 213 4.3 6.1 0.00 0.00 0.00 81 1008.6
20260505100507 49 238 2.6 5.2 0.00 0.00 0.00 81 1008.7
20260505100036 50 231 2.6 5.2 0.00 0.00 0.00 80 1008.7
20260505095505 50 221 2.6 4.3 0.00 0.00 0.00 80 1008.7
20260505095006 50 221 2.6 4.3 0.00 0.00 0.00 79 1008.8
20260505094515 51 210 1.7 7.0 0.00 0.00 0.00 78 1008.8
20260505094006 51 247 2.6 7.0 0.00 0.00 0.00 78 1008.8
20260505093506 51 236 4.3 7.0 0.00 0.00 0.00 77 1008.7
20260505093026 51 218 2.6 7.0 0.00 0.00 0.00 77 1008.7
20260505092507 51 224 3.5 7.0 0.00 0.00 0.00 77 1008.6
20260505092006 52 218 2.6 8.7 0.00 0.00 0.00 76 1008.6
20260505091528 52 231 3.5 8.7 0.00 0.00 0.00 76 1008.6
20260505091007 52 219 4.3 7.8 0.00 0.00 0.00 77 1008.7
20260505090510 52 207 3.5 8.7 0.00 0.00 0.00 77 1008.7
20260505090024 51 207 3.5 8.7 0.00 0.00 0.00 78 1008.8
20260505085508 51 282 1.7 7.0 0.00 0.00 0.00 77 1008.9
20260505085015 51 205 1.7 7.0 0.00 0.00 0.00 77 1008.9
20260505084528 51 224 2.6 6.1 0.00 0.00 0.00 78 1009.0
20260505084003 51 205 0.9 4.3 0.00 0.00 0.00 77 1009.1
20260505083504 51 195 1.7 7.8 0.00 0.00 0.00 76 1009.1
20260505083020 52 217 1.7 7.8 0.00 0.00 0.00 75 1009.0
20260505082504 52 221 1.7 7.0 0.00 0.00 0.00 74 1009.0
20260505082006 53 217 1.7 10.4 0.00 0.00 0.00 74 1008.9
20260505081522 52 200 2.6 10.4 0.00 0.00 0.00 74 1008.9
20260505081010 52 232 4.3 10.4 0.00 0.00 0.00 74 1008.8
20260505080508 52 215 4.3 10.4 0.00 0.00 0.00 74 1008.8
20260505080041 52 209 2.6 9.6 0.00 0.00 0.00 74 1008.7
20260505075507 52 205 2.6 11.3 0.00 0.00 0.00 73 1008.8
20260505075008 53 227 5.2 11.3 0.00 0.00 0.00 73 1008.7
20260505074528 53 232 4.3 10.4 0.00 0.00 0.00 73 1008.9
20260505074010 53 207 6.1 10.4 0.00 0.00 0.00 73 1008.9
20260505073508 53 232 5.2 9.6 0.00 0.00 0.00 73 1008.9
20260505073027 52 212 3.5 8.7 0.00 0.00 0.00 73 1008.9
20260505072511 53 236 4.3 9.6 0.00 0.00 0.00 72 1008.9
20260505072008 53 213 5.2 9.6 0.00 0.00 0.00 72 1008.9
20260505071522 53 211 3.5 8.7 0.00 0.00 0.00 72 1009.0
20260505071013 53 219 4.3 8.7 0.00 0.00 0.00 72 1009.0
20260505070511 53 229 3.5 7.8 0.00 0.00 0.00 72 1009.0
20260505070023 53 236 3.5 7.8 0.00 0.00 0.00 72 1009.0
20260505065507 53 238 3.5 8.7 0.00 0.00 0.00 72 1009.0
20260505065015 53 252 3.5 8.7 0.00 0.00 0.00 71 1009.0
20260505064527 53 243 3.5 9.6 0.00 0.00 0.00 71 1009.0
20260505064008 53 243 5.2 9.6 0.00 0.00 0.00 71 1009.0
20260505063511 53 221 3.5 9.6 0.00 0.00 0.00 70 1009.0
20260505063009 54 237 3.5 9.6 0.00 0.00 0.00 70 1009.0
20260505062504 54 229 5.2 9.6 0.00 0.00 0.00 70 1009.0
20260505062005 54 217 6.1 10.4 0.00 0.00 0.00 69 1009.1
20260505061512 54 193 5.2 10.4 0.00 0.00 0.00 69 1009.1
20260505061003 54 207 5.2 9.6 0.00 0.00 0.00 69 1009.2
20260505060507 54 190 6.1 9.6 0.00 0.00 0.00 68 1009.2
20260505060011 54 265 5.2 10.4 0.00 0.00 0.00 68 1009.3